Midland City, AL

5:35 AM CST on February 08, 2016 (GMT -0600)
Dothan Regional

Weather History for KDHN - January, 2013

Change the Weather History Date:

Wednesday, January 23, 2013

  Actual Average Record
Temperature  
Mean Temperature 47 °F 49 °F  
Max Temperature 61 °F 60 °F 80 °F (1944)
Min Temperature 32 °F 38 °F 19 °F (1960)
Degree Days  
Heating Degree Days 18 16  
Month to date heating degree days 225 379  
Since 1 July heating degree days 864 1092  
Moisture  
Dew Point 35 °F    
Average Humidity 65    
Maximum Humidity 86    
Minimum Humidity 37    
Precipitation  
Precipitation 0.00 in 0.19 in 1.84 in (2015)
Month to date precipitation 0.15 3.11  
Year to date precipitation 0.15 3.11  
Sea Level Pressure  
Sea Level Pressure 30.38 in    
Wind  
Wind Speed 3 mph (SW)    
Max Wind Speed 8 mph    
Max Gust Speed -    
Visibility 10 miles    
Events      
T = Trace of Precipitation, MM = Missing Value Source: NWS Daily Summary

Daily Weather History Graph

Daily Weather History Graph

Search for Another Location

Airport or City:

Trip Planner

Search our weather history database for the weather conditions in past years. The results will help you decide how hot, cold, wet, or windy it might be!

Date:

Astronomy

Jan. 23, 2013 Rise Set
Actual Time 6:38 AM CST 5:09 PM CST
Civil Twilight 6:12 AM CST 5:34 PM CST
Nautical Twilight 5:43 AM CST 6:04 PM CST
Astronomical Twilight 5:14 AM CST 6:33 PM CST
Moon 2:21 PM CST (1/23) 3:46 AM CST (1/23)
Length of Visible Light 11h 21m
Length of Day
10h 30m
Waxing Gibbous, 89% of the Moon is Illuminated
Jan 23
Waxing Gibbous
Jan 26
Full
Feb 3
Last Quarter
Feb 10
New
Feb 17
First Quarter

Hourly Weather History & Observations

Time (CST) Temp. Windchill Dew Point Humidity Pressure Visibility Wind Dir Wind Speed Gust Speed Precip Events Conditions
12:53 AM 37.0 °F - 28.9 °F 73% 30.37 in 10.0 mi Calm Calm - N/A   Clear
1:53 AM 35.1 °F - 28.0 °F 76% 30.36 in 10.0 mi Calm Calm - N/A   Clear
2:53 AM 35.1 °F - 30.0 °F 82% 30.38 in 10.0 mi Calm Calm - N/A   Clear
3:53 AM 34.0 °F 31.0 °F 30.0 °F 85% 30.38 in 10.0 mi NNW 3.5 mph - N/A   Clear
4:53 AM 33.1 °F 28.7 °F 28.9 °F 85% 30.40 in 10.0 mi NNE 4.6 mph - N/A   Clear
5:53 AM 34.0 °F - 28.9 °F 82% 30.41 in 10.0 mi Calm Calm - N/A   Mostly Cloudy
6:53 AM 37.0 °F - 28.9 °F 73% 30.43 in 10.0 mi Calm Calm - N/A   Overcast
7:53 AM 39.0 °F - 30.9 °F 73% 30.44 in 10.0 mi Calm Calm - N/A   Overcast
8:53 AM 44.1 °F 41.5 °F 28.0 °F 53% 30.46 in 10.0 mi East 4.6 mph - N/A   Overcast
9:53 AM 50.0 °F - 28.0 °F 43% 30.46 in 10.0 mi SE 5.8 mph - N/A   Clear
10:53 AM 54.0 °F - 28.0 °F 37% 30.44 in 10.0 mi Calm Calm - N/A   Clear
11:53 AM 57.0 °F - 33.1 °F 40% 30.40 in 10.0 mi Calm Calm - N/A   Partly Cloudy
12:53 PM 59.0 °F - 35.1 °F 41% 30.38 in 10.0 mi WSW 4.6 mph - N/A   Overcast
1:53 PM 59.0 °F - 36.0 °F 42% 30.35 in 10.0 mi West 8.1 mph - N/A   Overcast
2:53 PM 60.1 °F - 37.0 °F 42% 30.34 in 10.0 mi SW 6.9 mph - N/A   Overcast
4:53 PM 57.9 °F - 39.0 °F 49% 30.34 in 10.0 mi WSW 4.6 mph - N/A   Overcast
5:53 PM 52.0 °F - 39.9 °F 63% 30.33 in 10.0 mi SSW 5.8 mph - N/A   Mostly Cloudy
6:53 PM 52.0 °F - 39.9 °F 63% 30.32 in 10.0 mi SSW 5.8 mph - N/A   Clear
7:53 PM 50.0 °F - 39.9 °F 68% 30.33 in 10.0 mi SSW 6.9 mph - N/A   Clear
8:53 PM 51.1 °F - 42.1 °F 71% 30.34 in 10.0 mi SW 6.9 mph - N/A   Mostly Cloudy
9:53 PM 50.0 °F - 44.1 °F 80% 30.33 in 10.0 mi SW 6.9 mph - N/A   Partly Cloudy
10:53 PM 50.0 °F - 45.0 °F 83% 30.32 in 10.0 mi SW 6.9 mph - N/A   Clear
11:53 PM 48.9 °F - 45.0 °F 86% 30.32 in 10.0 mi WSW 5.8 mph - N/A   Clear